Weather in Kaimana

Indonesia     3°34′08″S   134°04′20″E
temp.,
°C
wind,
m/s
gust,
m/s
humid.,
%
clouds,
%
prec.,
mm/h
press.,
hPa
HPBL,
m
14 june, mon
mon1400:00+21ne119973 1.5 101218
03:00+21nne119870 1.6 101114
06:00+20ne1198100 1.2 101216
09:00+25s118556 1.7 1013374
12:00+26ssw127979 2.7 1011804
15:00+24ssw1291100 6.4 1008446
18:00+22ssw119897 1.8 101030
21:00+21s019975 4.0 101251
15 june, tue
tue1500:00+21nne119998 0.1 101136
03:00+20nne1198100 0.1 101014
06:00+20ne119870 0.0 101113
09:00+25s018240 0.0 1012484
12:00+26ssw117984 1.3 1010772
15:00+25ssw118942 3.6 1009463
18:00+22sw119868 2.3 101019
21:00+21ne0099100 4.5 101316
16 june, wed
wed1600:00+21nne1198100 0.3 101214
03:00+20nne1198100 2.3 101118
06:00+20ne1198100 1.2 101226
09:00+23ene019398 1.2 1013222
12:00+27sse0166100 0.3 10111150
15:00+25sw218256 1.9 1009621
18:00+21s019746 3.2 101115
21:00+21ne009810 4.7 101412
17 june, thu
thu1700:00+20ne11989 0.7 101316
03:00+20nne119898 0.9 101215
06:00+20nne1198100 0.1 101315
09:00+24e009043 0.7 1014274
12:00+25sw118689 2.8 1012652
15:00+25sw1190100 7.5 1009476
18:00+22sw119687 4.2 101114
21:00+21wsw009881 7.3 101318
18 june, fri
fri1800:00+21ne009797 1.6 101317
03:00+21ne119790 2.0 101215
06:00+21ene1197100 1.0 101316
09:00+21nne119899 2.1 101430
12:00+22s019396 0.3 1013172
15:00+24se118476 0.9 1010419
18:00+22ssw119594 0.8 101216
21:00+20s0098100 1.1 101418